Weather reports worldwide

Advertisment
Pamplona/Noain, Spain (8085): temperature & dewpoint: 10.07.2018 18:00:00 - 16.07.2018 18:00:00 (CEST)Pamplona/Noain, Spain (8085): wind speed: 10.07.2018 18:00:00 - 16.07.2018 18:00:00 (CEST)Pamplona/Noain, Spain (8085): wind direction: 10.07.2018 18:00:00 - 16.07.2018 18:00:00 (CEST)Pamplona/Noain, Spain (8085): reduced air pressure: 10.07.2018 18:00:00 - 16.07.2018 18:00:00 (CEST)Pamplona/Noain, Spain (8085): visibility: 10.07.2018 18:00:00 - 16.07.2018 18:00:00 (CEST)
Date & Time tt [°C] td [°C] ff [km/h] ff [kn] dd ppp [hPa] vv [km]
16.07.2018 18:00:00 - - - - - - -
16.07.2018 17:00:00 23,2 15,2 22 12 NW 1018,9 10
16.07.2018 16:00:00 21,1 14,5 29 16 NW 1019,0 10
16.07.2018 15:00:00 20,5 16,1 26 14 NW 1018,9 30
16.07.2018 14:00:00 19,0 18,6 21 11 NNW 1019,0 8
16.07.2018 13:00:00 23,3 15,4 22 12 NW 1017,4 10
16.07.2018 12:00:00 21,0 14,5 28 15 NW 1017,5 24
16.07.2018 11:00:00 18,6 14,3 24 13 NW 1017,8 10
16.07.2018 10:00:00 18,1 13,6 18 10 NW 1017,7 10
16.07.2018 09:00:00 18,5 13,1 13 7 N 1016,8 30
16.07.2018 08:00:00 18,5 14,0 26 14 NNW 1016,4 10
16.07.2018 07:00:00 18,5 15,0 16 9 NW 1015,8 10
16.07.2018 06:00:00 18,2 14,9 9 5 WNW 1015,2 10
16.07.2018 05:00:00 18,0 14,9 16 9 NW 1015,3 24
16.07.2018 04:00:00 17,6 15,2 11 6 NW 1015,8 23
16.07.2018 03:00:00 17,3 15,1 8 4 NNW 1016,2 9
16.07.2018 02:00:00 17,8 15,1 13 7 WNW 1016,4 8
16.07.2018 01:00:00 18,3 15,0 18 10 NW 1016,0 30
16.07.2018 00:00:00 19,4 15,9 8 4 NW 1015,4 10
15.07.2018 23:00:00 20,2 16,2 16 9 NW 1015,5 10
15.07.2018 22:00:00 20,5 16,1 24 13 N 1015,1 10
15.07.2018 21:00:00 21,2 16,1 28 15 NW 1013,9 25
15.07.2018 20:00:00 23,3 18,0 26 14 NNW 1012,5 10
15.07.2018 19:00:00 25,5 18,9 34 18 NNW 1011,7 26
15.07.2018 18:00:00 27,7 19,1 28 15 NNW 1010,7 10
15.07.2018 17:00:00 30,3 16,4 11 6 W 1010,4 30
15.07.2018 16:00:00 30,7 17,5 9 5 NW 1010,9 30
15.07.2018 15:00:00 29,8 17,2 8 4 NNE 1011,7 25
15.07.2018 14:00:00 29,0 17,7 5 3 N 1012,5 30
15.07.2018 13:00:00 27,7 17,6 5 3 NW 1013,5 10
15.07.2018 12:00:00 25,2 16,5 4 2 NW 1014,3 10
15.07.2018 11:00:00 22,0 17,0 4 2 - 1015,1 10
15.07.2018 10:00:00 20,6 16,4 2 1 NE 1015,7 10
15.07.2018 09:00:00 19,1 15,8 0 0 N 1016,2 10
15.07.2018 08:00:00 17,1 15,3 5 3 E 1016,5 10
15.07.2018 07:00:00 15,1 14,3 0 0 N 1016,8 9
15.07.2018 06:00:00 15,3 14,5 0 0 N 1016,3 13
15.07.2018 05:00:00 15,8 14,8 0 0 N 1016,1 9
15.07.2018 04:00:00 16,0 14,5 2 1 - 1016,2 9
15.07.2018 03:00:00 16,7 15,6 8 4 SSW 1016,5 23
15.07.2018 02:00:00 17,0 15,8 9 5 NNW 1016,8 19
15.07.2018 01:00:00 17,9 15,3 9 5 N 1016,0 27
15.07.2018 00:00:00 18,2 15,6 5 3 E 1016,3 10
14.07.2018 23:00:00 18,5 17,2 5 3 S 1016,4 10
14.07.2018 22:00:00 19,9 18,9 26 14 NE 1015,5 26
14.07.2018 21:00:00 24,6 18,8 22 12 NW 1013,8 10
14.07.2018 20:00:00 27,9 20,3 18 10 N 1011,3 30
14.07.2018 19:00:00 30,9 18,4 8 4 NW 1011,0 10
14.07.2018 18:00:00 32,4 14,8 8 4 S 1011,5 10
14.07.2018 17:00:00 31,7 15,9 8 4 ENE 1012,3 30
14.07.2018 16:00:00 31,4 17,2 5 3 ESE 1012,8 10
14.07.2018 15:00:00 30,0 16,7 5 3 S 1013,7 10
14.07.2018 14:00:00 29,5 17,3 8 4 ESE 1014,4 10
14.07.2018 13:00:00 28,4 17,7 4 2 SW 1015,0 10
14.07.2018 12:00:00 25,9 17,1 4 2 NNW 1016,0 10
14.07.2018 11:00:00 24,4 18,6 4 2 W 1016,4 10
14.07.2018 10:00:00 22,0 17,5 4 2 NW 1016,9 10
14.07.2018 09:00:00 20,1 17,4 4 2 N 1016,9 15
14.07.2018 08:00:00 18,0 16,8 4 2 - 1017,0 10
14.07.2018 07:00:00 16,2 15,7 5 3 WNW 1017,1 7
14.07.2018 06:00:00 16,4 15,9 5 3 WNW 1017,1 4,0
14.07.2018 05:00:00 17,2 16,4 4 2 NE 1017,5 7
14.07.2018 04:00:00 17,7 17,1 9 5 SSE 1018,3 7
14.07.2018 03:00:00 18,1 17,3 9 5 SE 1019,3 8
14.07.2018 02:00:00 17,6 16,8 5 3 SE 1018,5 9
14.07.2018 01:00:00 18,2 17,0 5 3 N 1018,2 14
14.07.2018 00:00:00 18,4 17,2 5 3 E 1017,9 10
13.07.2018 23:00:00 19,1 17,5 0 0 N 1017,6 9
13.07.2018 22:00:00 19,6 18,4 11 6 S 1016,9 9
13.07.2018 21:00:00 20,5 18,3 8 4 SE 1016,1 10
13.07.2018 20:00:00 21,4 19,4 16 9 NW 1017,2 10
13.07.2018 19:00:00 22,8 19,0 18 10 NW 1015,2 10
13.07.2018 18:00:00 25,2 19,6 11 6 N 1014,4 10
13.07.2018 17:00:00 26,5 19,2 8 4 ENE 1014,4 10
13.07.2018 16:00:00 25,5 19,7 16 9 S 1014,9 9
13.07.2018 15:00:00 31,4 17,6 5 3 SSW 1013,9 10
13.07.2018 14:00:00 29,7 16,8 4 2 W 1014,8 10
13.07.2018 13:00:00 27,6 16,2 8 4 SSW 1015,9 23
13.07.2018 12:00:00 23,2 14,8 4 2 ENE 1017,3 30
13.07.2018 11:00:00 20,9 14,0 4 2 WNW 1018,1 25
13.07.2018 10:00:00 19,3 14,6 8 4 NW 1018,8 10
13.07.2018 09:00:00 17,7 13,5 5 3 WNW 1018,9 10
13.07.2018 08:00:00 16,7 13,1 2 1 - 1018,6 10
13.07.2018 07:00:00 15,9 13,5 2 1 - 1018,6 10
13.07.2018 06:00:00 15,5 13,0 0 0 N 1018,9 10
13.07.2018 05:00:00 15,5 12,8 2 1 ESE 1018,8 30
13.07.2018 04:00:00 15,9 13,0 2 1 SSE 1018,8 28
13.07.2018 03:00:00 16,5 12,7 0 0 N 1018,8 8
13.07.2018 02:00:00 16,9 12,4 2 1 - 1018,7 9
13.07.2018 01:00:00 17,2 12,9 9 5 NNW 1019,0 30
13.07.2018 00:00:00 17,8 12,9 15 8 NNW 1018,6 30
12.07.2018 23:00:00 18,4 13,5 15 8 NNW 1018,3 30
12.07.2018 22:00:00 19,6 14,4 16 9 NNW 1017,3 30
12.07.2018 21:00:00 21,6 15,2 18 10 NW 1016,4 10
12.07.2018 20:00:00 23,2 16,0 24 13 NW 1015,7 10
12.07.2018 19:00:00 25,7 15,9 24 13 NNW 1014,6 21
12.07.2018 18:00:00 25,2 14,6 24 13 NW 1014,8 10
12.07.2018 17:00:00 26,5 15,8 21 11 N 1014,4 30
12.07.2018 16:00:00 27,7 15,9 21 11 NNW 1014,6 10
12.07.2018 15:00:00 27,2 15,4 18 10 NW 1014,6 10
12.07.2018 14:00:00 25,1 14,7 15 8 NW 1015,5 10
12.07.2018 13:00:00 25,1 14,4 21 11 NNW 1015,7 10
12.07.2018 12:00:00 24,8 14,9 13 7 N 1015,6 10
12.07.2018 11:00:00 23,2 15,3 11 6 NNE 1015,8 30
12.07.2018 10:00:00 20,7 15,8 2 1 ENE 1016,1 10
12.07.2018 09:00:00 19,2 15,6 4 2 - 1016,0 10
12.07.2018 08:00:00 16,9 15,6 0 0 N 1016,1 10
12.07.2018 07:00:00 15,5 13,9 0 0 N 1016,0 10
12.07.2018 06:00:00 16,2 14,6 4 2 S 1015,6 10
12.07.2018 05:00:00 16,8 14,8 4 2 W 1015,4 25
12.07.2018 04:00:00 18,2 15,4 8 4 NW 1015,0 9
12.07.2018 03:00:00 18,9 16,5 5 3 N 1015,3 9
12.07.2018 02:00:00 19,6 15,9 13 7 WNW 1015,4 30
12.07.2018 01:00:00 19,7 15,8 13 7 NW 1015,1 10
12.07.2018 00:00:00 20,1 16,2 15 8 NW 1014,6 10
11.07.2018 23:00:00 20,8 16,4 16 9 NW 1014,4 10
11.07.2018 22:00:00 21,5 16,5 16 9 NW 1013,7 10
11.07.2018 21:00:00 23,1 15,2 16 9 N 1012,7 10
11.07.2018 20:00:00 24,5 15,1 16 9 N 1012,4 10
11.07.2018 19:00:00 24,9 15,0 21 11 NE 1012,6 30
11.07.2018 18:00:00 25,3 14,8 29 16 NNE 1012,9 10
11.07.2018 17:00:00 25,5 14,7 29 16 N 1013,6 10
11.07.2018 16:00:00 26,3 15,2 31 17 N 1014,5 10
11.07.2018 15:00:00 26,8 14,9 29 16 NNW 1013,9 30
11.07.2018 14:00:00 27,4 15,6 13 7 N 1013,1 30
11.07.2018 13:00:00 27,4 16,4 15 8 NNW 1013,1 10
11.07.2018 12:00:00 26,2 15,0 11 6 NW 1013,7 10
11.07.2018 11:00:00 24,5 15,4 13 7 N 1014,3 30
11.07.2018 10:00:00 22,8 15,9 13 7 N 1015,2 30
11.07.2018 09:00:00 20,8 15,2 18 10 NNW 1016,0 10
11.07.2018 08:00:00 18,8 14,7 11 6 NNW 1016,6 20
11.07.2018 07:00:00 16,3 13,6 11 6 NNW 1017,0 26
11.07.2018 06:00:00 16,5 13,4 11 6 NW 1016,9 10
11.07.2018 05:00:00 16,7 13,4 18 10 NW 1017,1 30
11.07.2018 04:00:00 16,8 13,5 13 7 NW 1017,2 8
11.07.2018 03:00:00 17,4 13,7 13 7 NW 1017,5 9
11.07.2018 02:00:00 17,5 13,2 8 4 WNW 1017,9 9
11.07.2018 01:00:00 17,8 13,5 11 6 NW 1018,3 9
11.07.2018 00:00:00 18,6 13,7 15 8 NW 1018,5 30
10.07.2018 23:00:00 19,6 14,4 18 10 NW 1018,4 10
10.07.2018 22:00:00 21,0 14,0 24 13 N 1017,7 30
10.07.2018 21:00:00 22,7 14,5 22 12 NNW 1016,9 10
10.07.2018 20:00:00 24,3 13,8 24 13 NNW 1016,1 10
10.07.2018 19:00:00 25,6 14,4 29 16 NNW 1015,8 10
10.07.2018 18:00:00 26,4 14,8 28 15 N 1015,6 30

tt = temperature
td = dewpoint
ff = wind speed
dd = wind direction
ppp = reduced air pressure
vv = visibility

Next stations